Flag for Cabo Verde Weather past 2 weeks in Santa Maria, Cabo Verde

Now
77 °F

Passing clouds.


Feels Like: 79 °F
Forecast: 77 / 87 °F
Wind: 10 mph from Northeast

Location: Sal

Current Time: Sep 3, 2014 at 2:46:22 AM

Latest Report: Sep 3, 2014 at 2:00 AM


Visibility: N/A

Pressure: 29.98 "Hg

Humidity: 79%

Dew point: 70 °F

Location of Santa MariaLocation

Historic Weather in Santa Maria — Graph

°F

Santa Maria temperature yesterday

Maximum temperature yesterday: 88 °F (at 12:00 PM)
Minimum temperature yesterday: 77 °F (at 12:00 AM)
Average temperature yesterday: 80 °F

Past Weeks' High & Low Weather Summary

 TemperatureHumidityPressure
High90 °F (Aug 27, 1:00 PM)94% (Aug 21, 8:00 AM)30.01 "Hg (Aug 21, 8:00 AM)
Low72 °F (Aug 20, 6:00 AM)52% (Aug 27, 1:00 PM)29.89 "Hg (Aug 19, 2:00 AM)
Average80 °F75%29.94 "Hg
* Reported Aug 19 1:00 AM — Sep 3 1:00 AM, Santa Maria, Weather by CustomWeather, © 2014

Note: Actual official high and low records may vary slightly from our data, if they occured in-between our weather recording intervals... More about our weather records

Advertising

Santa Maria weather history for previous 24 hours

 ConditionsComfort  
Time TempWeatherWind HumidityBarometerVisibility
1:00 AM
Sep 3
77 °FPassing clouds.10 mph79%29.98 "HgN/A
12:00 AM77 °FPassing clouds.9 mph79%29.98 "HgN/A
11:00 PM
Sep 2
77 °FPassing clouds.9 mph79%30.01 "HgN/A
9:00 PM79 °FPassing clouds.9 mph79%29.98 "HgN/A
8:00 PM79 °FPassing clouds.10 mph74%29.98 "HgN/A
7:00 PM79 °FPassing clouds.13 mph74%29.95 "HgN/A
6:00 PM81 °FPassing clouds.12 mph70%29.95 "HgN/A
5:00 PM82 °FPassing clouds.10 mph66%29.95 "HgN/A
3:00 PM84 °FScattered clouds.10 mph62%29.95 "HgN/A
2:00 PM86 °FScattered clouds.13 mph59%29.95 "HgN/A
12:00 PM88 °FBroken clouds.12 mph59%29.98 "HgN/A
11:00 AM84 °FBroken clouds.12 mph62%29.98 "HgN/A
10:00 AM82 °FPartly sunny.13 mph70%30.01 "HgN/A
9:00 AM81 °FBroken clouds.13 mph74%29.98 "HgN/A
8:00 AM79 °FBroken clouds.12 mph79%29.98 "HgN/A
7:00 AM77 °FBroken clouds.9 mph83%29.95 "HgN/A
6:00 AM77 °FPartly sunny.9 mph83%29.95 "HgN/A
5:00 AM77 °FPartly sunny.9 mph83%29.92 "HgN/A
4:00 AM77 °FPartly cloudy.9 mph83%29.92 "HgN/A
3:00 AM77 °FPassing clouds.10 mph83%29.92 "HgN/A
2:00 AM77 °FPartly cloudy.12 mph83%29.95 "HgN/A
Weather by CustomWeather, © 2014

See weather overviewHow to use our weather pages